Location: Chervonnoye
(48.6000°N, 34.4000°E)
Time: 13:20:42
(UTC+00:00)

deb Kosmos-2237 - Pass Details

Date: 18 June 2021
Orbit: 850 x 1045 km, 71.0° (Epoch: 25 July)

Event Time Altitude Azimuth Distance (km) Brightness Sun altitude
Rises 18:19:01 0° 183° (S) 3,530 ? -4.7°
Reaches altitude 10° 18:21:33 10° 177° (S) 2,620 ? -5.0°
Maximum altitude 18:27:16 44° 107° (ESE) 1,307 ? -5.7°
Drops below altitude 10° 18:33:17 10° 38° (NE) 2,766 ? -6.4°
Sets 18:36:01 0° 32° (NNE) 3,746 ? -6.7°
